Epoch 2007 Jan. 20.0 TT = JDT 2454120.5
T 2007 Jan. 2.2815 TT MPC
q 1.226435 (2000.0) P Q
n 0.0450815 Peri. 117.4137 +0.2821817 -0.8697202
a 7.818745 Node 309.9512 +0.5813866 +0.4907670
e 0.843142 Incl. 31.8845 +0.7631272 -0.0522931
P 21.9
From 265 observations 2005 July 6-2006 Aug. 1, mean residual 0".3.
Finding Charts
Magnitudes Graph
H = 11.9 G = 0.15
The orbital elements are published on M.P.E.C. 2006-P09.
The charts are made with StellaNavigator Ver.2.0 for Windows
(AstroArts / ASCII).
The magnitudes graphs are made with Comet for Windows.
Copyright(C) Seiichi Yoshida (comet@aerith.net). All rights reserved.